Flag for Canada Weather past 2 weeks in Cumberland County, Nova Scotia, Canada

Now
42 °F

Quite cool.


Feels Like: 37 °F
Forecast: 40 / 46 °F
Wind: 8 mph from Northeast

Location: Kentville

Current Time: Jun 2, 2015 at 3:08:46 PM

Latest Report: Jun 2, 2015 at 2:00 PM


Visibility: N/A

Pressure: 30.27 "Hg

Humidity: 98%

Dew point: 42 °F

Location of Cumberland CountyLocation

Historic Weather in Cumberland County — Graph

°F

Cumberland County temperature yesterday

Maximum temperature yesterday: 48 °F (at 12:00 PM)
Minimum temperature yesterday: 45 °F (at 6:00 AM)
Average temperature yesterday: 47 °F

Past Weeks' High & Low Weather Summary

 TemperatureHumidityPressure
High82 °F (May 27, 5:00 PM)98% (Jun 2, 10:00 AM)30.39 "Hg (Jun 2, 10:00 AM)
Low38 °F (May 23, 6:00 AM)19% (May 25, 5:00 PM)29.47 "Hg (May 20, 4:00 PM)
Average58 °F69%30.05 "Hg
* Reported May 18 2:00 PM — Jun 2 2:00 PM, Cumberland County, Weather by CustomWeather, © 2015

Note: Actual official high and low records may vary slightly from our data, if they occured in-between our weather recording intervals... More about our weather records

Advertising

Cumberland County weather history for previous 24 hours

 ConditionsComfort  
Time TempWeatherWind HumidityBarometerVisibility
2:00 PM
Tue, Jun 2
42 °FQuite cool.8 mph98%30.27 "HgN/A
1:00 PM43 °FQuite cool.9 mph97%30.29 "HgN/A
12:00 PM43 °FQuite cool.6 mph98%30.30 "HgN/A
11:00 AM43 °FQuite cool.8 mph98%30.31 "HgN/A
10:00 AM43 °FQuite cool.6 mph98%30.33 "HgN/A
9:00 AM43 °FQuite cool.6 mph97%30.32 "HgN/A
8:00 AM43 °FQuite cool.5 mph96%30.33 "HgN/A
7:00 AM43 °FQuite cool.3 mph93%30.32 "HgN/A
6:00 AM43 °FQuite cool.3 mph94%30.33 "HgN/A
5:00 AM44 °FQuite cool.5 mph93%30.34 "HgN/A
4:00 AM44 °FQuite cool.5 mph90%30.34 "HgN/A
2:00 AM44 °FQuite cool.3 mph93%30.36 "HgN/A
1:00 AM45 °FQuite cool.3 mph95%30.37 "HgN/A
12:00 AM44 °FQuite cool.1 mph96%30.38 "HgN/A
11:00 PM
Mon, Jun 1
45 °FQuite cool.2 mph93%30.39 "HgN/A
10:00 PM45 °FCool.3 mph90%30.38 "HgN/A
9:00 PM46 °FCool.2 mph85%30.38 "HgN/A
8:00 PM46 °FCool.3 mph82%30.38 "HgN/A
7:00 PM47 °FCool.3 mph85%30.37 "HgN/A
6:00 PM46 °FCool.7 mph84%30.37 "HgN/A
5:00 PM47 °FCool.8 mph84%30.37 "HgN/A
4:00 PM47 °FCool.7 mph91%30.36 "HgN/A
3:00 PM47 °FCool.6 mph88%30.38 "HgN/A
Weather by CustomWeather, © 2015

See weather overviewHow to use our weather pages